Date String (YYYY-MM-DD hh:mm:ss) UTC,Instrument flags,absolute air pressure of the measurement (hPa),sample flow rate (lpm),inlet stack bypass flow (lpm),air temperature of the measurement (°C),ambient temperature measured by the external sensor (°C),aerosol sample conditioner tube jacket temperature (°C),OPC LED temperature (°C),internal box temperature (°C),relative humidity of the measurement (%),span deviation,mass concentration of particles derived from Lorenz-Mie calculation of OPC scattering (μg/m³),mass concentration of particles derived from Lorenz-Mie calculation of OPC scattering (μg/m³),mass concentration of particles derived from Lorenz-Mie calculation of OPC scattering (μg/m³)
DateTimeUTC,F1_M11,P_M11,Q1_M11,Q2_M11,T1_M11,T2_M11,T3_M11,T4_M11,T5_M11,U1_M11,ZSPAN_M11,X0_M11,X2_M11,X1_M11
2024-02-17 11:00:00,SystemResetWarning,0835.1,5.02,000.00,018.7,018.7,000.0,027.1,020.5,09.8,0000.0,0006.81,0005.22,0005.11
2024-02-17 11:01:00,SystemResetWarning,0835.1,5.00,000.00,018.6,018.5,000.0,027.0,020.3,09.9,0000.0,0007.28,0005.26,0005.12
2024-02-17 11:02:00,SystemResetWarning,0835.2,5.00,000.00,018.5,018.3,000.0,027.0,020.1,10.0,0000.0,0007.33,0005.28,0005.14
2024-02-17 11:03:00,SystemResetWarning,0835.2,5.00,000.00,018.5,018.1,000.0,027.0,020.0,10.1,0000.0,0007.32,0005.28,0005.15
2024-02-17 11:04:00,SystemResetWarning,0835.2,4.99,000.00,018.4,018.0,000.0,027.0,020.0,10.2,0000.0,0007.67,0005.29,0005.16
2024-02-17 11:05:00,SystemResetWarning,0835.2,4.99,000.00,018.4,017.9,000.0,027.0,020.0,10.2,0000.0,0007.63,0005.28,0005.18
2024-02-17 11:06:00,SystemResetWarning,0835.2,5.00,000.00,018.4,017.8,000.0,027.0,020.0,10.3,0000.0,0007.66,0005.31,0005.20
2024-02-17 11:07:00,SystemResetWarning,0835.2,5.01,000.00,018.4,017.9,000.0,027.1,020.1,10.4,0000.0,0007.67,0005.33,0005.22
2024-02-17 11:08:00,SystemResetWarning,0835.2,5.01,000.00,018.5,018.5,000.0,027.2,020.6,10.3,0000.0,0007.67,0005.35,0005.25
2024-02-17 11:09:00,SystemResetWarning,0835.3,5.00,000.00,018.7,019.2,000.0,027.3,021.1,10.2,0000.0,0007.66,0005.36,0005.27
2024-02-17 11:10:00,SystemResetWarning,0835.3,4.99,000.00,018.9,019.3,000.0,027.2,021.1,10.1,0000.0,0007.68,0005.38,0005.29
2024-02-17 11:11:00,SystemResetWarning,0835.3,4.99,000.00,018.8,019.1,000.0,027.1,020.8,10.1,0000.0,0007.73,0005.41,0005.31
2024-02-17 11:12:00,SystemResetWarning,0835.3,5.01,000.00,018.8,018.9,000.0,027.1,020.5,10.2,0000.0,0007.61,0005.44,0005.35
2024-02-17 11:13:00,SystemResetWarning,0835.3,5.01,000.00,018.7,018.6,000.0,027.1,020.3,10.2,0000.0,0007.57,0005.47,0005.37
2024-02-17 11:14:00,SystemResetWarning,0835.3,5.00,000.00,018.6,018.4,000.0,027.0,020.2,10.3,0000.0,0007.63,0005.51,0005.40
2024-02-17 11:15:00,SystemResetWarning,0835.3,4.99,000.00,018.5,018.2,000.0,027.0,020.1,10.4,0000.0,0007.37,0005.54,0005.43
2024-02-17 11:16:00,SystemResetWarning,0835.2,4.99,000.00,018.5,018.1,000.0,027.0,020.0,10.5,0000.0,0007.35,0005.57,0005.44
2024-02-17 11:17:00,SystemResetWarning,0835.3,5.00,000.00,018.4,017.9,000.0,027.0,020.0,10.5,0000.0,0007.32,0005.57,0005.45
2024-02-17 11:18:00,SystemResetWarning,0835.2,5.00,000.00,018.4,017.8,000.0,027.0,020.0,10.6,0000.0,0007.47,0005.59,0005.46
2024-02-17 11:19:00,SystemResetWarning,0835.2,5.00,000.00,018.4,017.7,000.0,027.0,020.0,10.6,0000.0,0007.74,0005.60,0005.47
2024-02-17 11:20:00,SystemResetWarning,0835.2,5.01,000.00,018.3,017.7,000.0,027.0,020.0,10.7,0000.0,0007.79,0005.61,0005.46
2024-02-17 11:21:00,SystemResetWarning,0835.2,5.00,000.00,018.3,017.6,000.0,027.0,020.0,10.7,0000.0,0007.80,0005.64,0005.49
2024-02-17 11:22:00,SystemResetWarning,0835.4,5.01,000.00,018.3,017.8,000.0,027.0,020.2,10.7,0000.0,0007.78,0005.65,0005.50
2024-02-17 11:23:00,SystemResetWarning,0835.4,4.99,000.00,018.5,018.6,000.0,027.1,020.7,10.7,0000.0,0007.74,0005.64,0005.51
2024-02-17 11:24:00,SystemResetWarning,0835.4,5.00,000.00,018.7,019.1,000.0,027.2,020.9,10.6,0000.0,0007.72,0005.64,0005.52
2024-02-17 11:25:00,SystemResetWarning,0835.4,4.99,000.00,018.7,019.0,000.0,027.1,020.7,10.5,0000.0,0007.70,0005.65,0005.54
2024-02-17 11:26:00,SystemResetWarning,0835.3,4.99,000.00,018.7,018.7,000.0,027.0,020.5,10.6,0000.0,0007.70,0005.67,0005.55
2024-02-17 11:27:00,SystemResetWarning,0835.3,5.00,000.00,018.7,018.6,000.0,027.0,020.4,10.6,0000.0,0007.66,0005.66,0005.56
2024-02-17 11:28:00,SystemResetWarning,0835.3,5.01,000.00,018.6,018.4,000.0,027.0,020.3,10.7,0000.0,0007.67,0005.67,0005.58
2024-02-17 11:29:00,SystemResetWarning,0835.4,5.00,000.00,018.6,018.2,000.0,026.9,020.2,10.7,0000.0,0007.57,0005.69,0005.59
2024-02-17 11:30:00,SystemResetWarning,0835.4,5.00,000.00,018.5,018.1,000.0,026.9,020.1,10.8,0000.0,0007.28,0005.70,0005.61
2024-02-17 11:31:00,SystemResetWarning,0835.5,5.00,000.00,018.5,018.0,000.0,026.9,020.1,10.8,0000.0,0007.25,0005.72,0005.64
2024-02-17 11:32:00,SystemResetWarning,0835.5,4.99,000.00,018.4,017.9,000.0,026.9,020.0,10.9,0000.0,0007.26,0005.73,0005.65
2024-02-17 11:33:00,SystemResetWarning,0835.5,5.00,000.00,018.4,017.8,000.0,026.9,020.0,10.9,0000.0,0007.30,0005.75,0005.67
2024-02-17 11:34:00,SystemResetWarning,0835.5,5.00,000.00,018.4,017.7,000.0,026.9,020.0,11.0,0000.0,0007.32,0005.77,0005.68
2024-02-17 11:35:00,SystemResetWarning,0835.5,5.01,000.00,018.3,017.7,000.0,026.9,020.0,11.0,0000.0,0007.44,0005.83,0005.73
2024-02-17 11:36:00,SystemResetWarning,0835.5,5.01,000.00,018.3,017.6,000.0,026.9,020.0,11.0,0000.0,0007.50,0005.88,0005.76
2024-02-17 11:37:00,SystemResetWarning,0835.6,5.01,000.00,018.3,017.7,000.0,026.9,020.0,11.0,0000.0,0007.54,0005.91,0005.79
2024-02-17 11:38:00,SystemResetWarning,0835.6,5.00,000.00,018.4,018.2,000.0,027.0,020.4,11.0,0000.0,0007.58,0005.97,0005.84
2024-02-17 11:39:00,SystemResetWarning,0835.5,5.00,000.00,018.6,019.0,000.0,027.1,020.9,10.9,0000.0,0007.60,0006.01,0005.89
2024-02-17 11:40:00,SystemResetWarning,0835.5,5.00,000.00,018.7,019.1,000.0,027.1,020.9,10.8,0000.0,0007.63,0006.06,0005.94
2024-02-17 11:41:00,SystemResetWarning,0835.5,4.99,000.00,018.7,018.9,000.0,027.0,020.7,10.8,0000.0,0007.84,0006.12,0006.00
2024-02-17 11:42:00,SystemResetWarning,0835.5,5.01,000.00,018.7,018.7,000.0,027.0,020.5,10.8,0000.0,0007.89,0006.18,0006.06
2024-02-17 11:43:00,SystemResetWarning,0835.5,5.01,000.00,018.6,018.5,000.0,027.0,020.4,10.8,0000.0,0007.92,0006.23,0006.11
2024-02-17 11:44:00,SystemResetWarning,0835.5,5.00,000.00,018.6,018.4,000.0,027.0,020.3,10.9,0000.0,0007.94,0006.26,0006.14
2024-02-17 11:45:00,SystemResetWarning,0835.5,5.00,000.00,018.6,018.2,000.0,026.9,020.2,10.9,0000.0,0007.97,0006.28,0006.17
2024-02-17 11:46:00,SystemResetWarning,0835.6,4.99,000.00,018.5,018.1,000.0,026.9,020.2,10.9,0000.0,0007.91,0006.27,0006.17
2024-02-17 11:47:00,SystemResetWarning,0835.6,5.00,000.00,018.5,018.0,000.0,026.9,020.1,11.0,0000.0,0007.90,0006.28,0006.19
2024-02-17 11:48:00,SystemResetWarning,0835.6,5.00,000.00,018.4,017.9,000.0,026.9,020.0,11.0,0000.0,0007.91,0006.29,0006.21
2024-02-17 11:49:00,SystemResetWarning,0835.5,5.01,000.00,018.4,017.8,000.0,026.9,020.0,11.0,0000.0,0008.34,0006.31,0006.22
2024-02-17 11:50:00,SystemResetWarning,0835.6,5.01,000.00,018.3,017.8,000.0,026.9,020.0,11.1,0000.0,0008.42,0006.32,0006.23
2024-02-17 11:51:00,SystemResetWarning,0835.5,5.00,000.00,018.3,017.7,000.0,026.9,020.0,11.1,0000.0,0008.42,0006.33,0006.23
2024-02-17 11:52:00,SystemResetWarning,0835.6,5.00,000.00,018.3,017.7,000.0,026.9,020.0,11.1,0000.0,0008.24,0006.32,0006.22
2024-02-17 11:53:00,SystemResetWarning,0835.6,5.00,000.00,018.3,017.7,000.0,026.9,020.0,11.1,0000.0,0008.22,0006.31,0006.22
2024-02-17 11:54:00,SystemResetWarning,0835.6,5.00,000.00,018.4,018.2,000.0,027.0,020.4,11.1,0000.0,0008.26,0006.32,0006.22
2024-02-17 11:55:00,SystemResetWarning,0835.6,5.01,000.00,018.6,018.9,000.0,027.1,020.8,11.0,0000.0,0008.29,0006.35,0006.22
2024-02-17 11:56:00,SystemResetWarning,0835.6,4.99,000.00,018.7,018.9,000.0,027.1,020.8,10.9,0000.0,0008.29,0006.36,0006.23
2024-02-17 11:57:00,SystemResetWarning,0835.6,4.99,000.00,018.7,018.7,000.0,027.0,020.6,10.9,0000.0,0008.29,0006.37,0006.25
2024-02-17 11:58:00,SystemResetWarning,0835.5,5.01,000.00,018.6,018.5,000.0,027.0,020.3,10.9,0000.0,0008.30,0006.39,0006.26
2024-02-17 11:59:00,SystemResetWarning,0835.5,5.00,000.00,018.5,018.4,000.0,026.9,020.2,11.0,0000.0,0008.32,0006.42,0006.27
